User: anonymous   Login
Location: Caltech
(34.1382°N, 118.1253°W)
Time: 10:06:26
(UTC-08:00)
Language:

Uribyol 2 - Orbit

View from above orbital plane
View from above orbital plane
View from above satellite
View from above satellite

Ground track
Ground track

The orbit data is extracted from the following two-line orbital elements,

1 22828U 93061F   17058.13821725  .00000022  00000-0  25779-4 0  9999
2 22828  98.7831  21.3676 0008823 250.5802 109.4427 14.30624048190209
Epoch (UTC): 27 February 2017 03:19:01
Eccentricity: 0.0008823
inclination: 98.7831°
perigee height: 783 km
apogee height: 796 km
right ascension of ascending node: 21.3676°
argument of perigee: 250.5802°
revolutions per day: 14.30624048
mean anomaly at epoch: 109.4427°
orbit number at epoch: 19020

The dashed part of the orbit path shows where the satellite is in the earth's shadow,  

DLR